"Sample Date","Sample Time","Sample Value","Units","Flow Rate","Sample Interval","Number Channels","Micron Size 0","Counts/Channel 0","Micron Size 1","Counts/Channel 1","Micron Size 2","Counts/Channel 2","Micron Size 3","Counts/Channel 3","Micron Size 4","Counts/Channel 4","Micron Size 5","Counts/Channel 5","Micron Size 6","Counts/Channel 6","Micron Size 7","Counts/Channel 7","Micron Size 8","Counts/Channel 8","Micron Size 9","Counts/Channel 9","Micron Size 10","Counts/Channel 10","Micron Size 11","Counts/Channel 11","Micron Size 12","Counts/Channel 12","Micron Size 13","Counts/Channel 13","Micron Size 14","Counts/Channel 14","Micron Size 15","Counts/Channel 15","Micron Size 16","Counts/Channel 16","Micron Size 17","Counts/Channel 17","Micron Size 18","Counts/Channel 18","Micron Size 19","Counts/Channel 19","Micron Size 20","Counts/Channel 20","Micron Size 21","Counts/Channel 21","Micron Size 22","Counts/Channel 22","Micron Size 23","Counts/Channel 23","Micron Size 24","Counts/Channel 24","Micron Size 25","Counts/Channel 25","Micron Size 26","Counts/Channel 26","Micron Size 27","Counts/Channel 27","Micron Size 28","Counts/Channel 28","Micron Size 29","Counts/Channel 29","Micron Size 30","Counts/Channel 30","Micron Size 31","Counts/Channel 31"
"03/05/08","09:00:00",50644.000,"cc",28273.326,6.00,6,0.100,42885.000,0.200,3961.000,0.300,1564.000,0.500,1638.000,1.000,596.000,5.000,0
"03/05/08","09:00:06",50467.000,"cc",28314.578,6.00,6,0.100,42880.000,0.200,3851.000,0.300,1501.000,0.500,1664.000,1.000,571.000,5.000,0
"03/05/08","09:00:12",50604.000,"cc",28403.951,6.00,6,0.100,42979.000,0.200,3830.000,0.300,1533.000,0.500,1678.000,1.000,584.000,5.000,0
"03/05/08","09:00:18",50246.000,"cc",28298.309,6.00,6,0.100,42482.000,0.200,3862.000,0.300,1524.000,0.500,1743.000,1.000,635.000,5.000,0
"03/05/08","09:00:24",49868.000,"cc",28263.125,6.00,6,0.100,42270.000,0.200,3800.000,0.300,1543.000,0.500,1681.000,1.000,574.000,5.000,0
"03/05/08","09:00:30",49805.000,"cc",28199.395,6.00,6,0.100,42526.000,0.200,3640.000,0.300,1443.000,0.500,1668.000,1.000,528.000,5.000,0
"03/05/08","09:00:36",49866.000,"cc",28318.066,6.00,6,0.100,42579.000,0.200,3749.000,0.300,1397.000,0.500,1652.000,1.000,489.000,5.000,0
"03/05/08","09:00:42",49654.000,"cc",28379.842,6.00,6,0.100,42338.000,0.200,3748.000,0.300,1418.000,0.500,1566.000,1.000,584.000,5.000,0
"03/05/08","09:00:48",49744.000,"cc",28275.961,6.00,6,0.100,42515.000,0.200,3635.000,0.300,1457.000,0.500,1604.000,1.000,533.000,5.000,0
"03/05/08","09:00:54",49697.000,"cc",28266.621,6.00,6,0.100,42258.000,0.200,3797.000,0.300,1452.000,0.500,1633.000,1.000,557.000,5.000,0
"03/05/08","09:01:00",49781.000,"cc",28340.889,6.00,6,0.100,42402.000,0.200,3774.000,0.300,1510.000,0.500,1553.000,1.000,542.000,5.000,0
"03/05/08","09:01:06",49264.000,"cc",28327.525,6.00,6,0.100,42046.000,0.200,3749.000,0.300,1364.000,0.500,1603.000,1.000,502.000,5.000,0
"03/05/08","09:01:12",49521.000,"cc",28374.340,6.00,6,0.100,42142.000,0.200,3738.000,0.300,1481.000,0.500,1621.000,1.000,539.000,5.000,0
"03/05/08","09:01:18",49393.000,"cc",28298.877,6.00,6,0.100,42428.000,0.200,3553.000,0.300,1346.000,0.500,1550.000,1.000,516.000,5.000,0
"03/05/08","09:01:24",49150.000,"cc",28227.240,6.00,6,0.100,42021.000,0.200,3652.000,0.300,1419.000,0.500,1520.000,1.000,538.000,5.000,0
"03/05/08","09:01:30",49244.000,"cc",28336.959,6.00,6,0.100,42148.000,0.200,3599.000,0.300,1418.000,0.500,1548.000,1.000,531.000,5.000,0
"03/05/08","09:01:36",49900.000,"cc",28363.773,6.00,6,0.100,42118.000,0.200,3858.000,0.300,1576.000,0.500,1764.000,1.000,584.000,5.000,0
"03/05/08","09:01:42",49303.000,"cc",28337.022,6.00,6,0.100,41835.000,0.200,3747.000,0.300,1546.000,0.500,1643.000,1.000,532.000,5.000,0
"03/05/08","09:01:48",49254.000,"cc",28271.371,6.00,6,0.100,42089.000,0.200,3684.000,0.300,1409.000,0.500,1562.000,1.000,510.000,5.000,0
"03/05/08","09:01:54",51114.000,"cc",28339.072,6.00,6,0.100,43202.000,0.200,4051.000,0.300,1615.000,0.500,1725.000,1.000,521.000,5.000,0
"03/05/08","09:02:00",52573.000,"cc",28333.318,6.00,6,0.100,43948.000,0.200,4259.000,0.300,1854.000,0.500,1885.000,1.000,627.000,5.000,0
"03/05/08","09:02:06",52273.000,"cc",28291.082,6.00,6,0.100,43700.000,0.200,4324.000,0.300,1838.000,0.500,1793.000,1.000,618.000,5.000,0
"03/05/08","09:02:12",50681.000,"cc",28328.148,6.00,6,0.100,43185.000,0.200,3835.000,0.300,1491.000,0.500,1644.000,1.000,526.000,5.000,0
"03/05/08","09:02:18",49847.000,"cc",28392.811,6.00,6,0.100,42587.000,0.200,3777.000,0.300,1440.000,0.500,1494.000,1.000,549.000,5.000,0
"03/05/08","09:02:24",49817.000,"cc",28255.016,6.00,6,0.100,42611.000,0.200,3707.000,0.300,1385.000,0.500,1565.000,1.000,549.000,5.000,0
"03/05/08","09:02:30",50176.000,"cc",28252.324,6.00,6,0.100,43101.000,0.200,3659.000,0.300,1378.000,0.500,1507.000,1.000,531.000,5.000,0
"03/05/08","09:02:36",50700.000,"cc",28361.934,6.00,6,0.100,43568.000,0.200,3648.000,0.300,1404.000,0.500,1545.000,1.000,535.000,5.000,0
"03/05/08","09:02:42",50802.000,"cc",28313.191,6.00,6,0.100,43487.000,0.200,3698.000,0.300,1480.000,0.500,1615.000,1.000,522.000,5.000,0
"03/05/08","09:02:48",50307.000,"cc",28289.916,6.00,6,0.100,43060.000,0.200,3692.000,0.300,1430.000,0.500,1590.000,1.000,535.000,5.000,0
"03/05/08","09:02:54",50324.000,"cc",28238.473,6.00,6,0.100,43048.000,0.200,3709.000,0.300,1471.000,0.500,1562.000,1.000,534.000,5.000,0
"03/05/08","09:03:00",50370.000,"cc",28394.529,6.00,6,0.100,43047.000,0.200,3788.000,0.300,1486.000,0.500,1551.000,1.000,498.000,5.000,0
"03/05/08","09:03:06",50952.000,"cc",28321.045,6.00,6,0.100,43615.000,0.200,3768.000,0.300,1446.000,0.500,1623.000,1.000,500.000,5.000,0
"03/05/08","09:03:12",50810.000,"cc",28329.039,6.00,6,0.100,43339.000,0.200,3630.000,0.300,1577.000,0.500,1673.000,1.000,591.000,5.000,0
"03/05/08","09:03:18",50961.000,"cc",28280.658,6.00,6,0.100,43408.000,0.200,3835.000,0.300,1535.000,0.500,1634.000,1.000,549.000,5.000,0
"03/05/08","09:03:24",50061.000,"cc",28290.951,6.00,6,0.100,42705.000,0.200,3721.000,0.300,1516.000,0.500,1602.000,1.000,517.000,5.000,0
"03/05/08","09:03:30",50407.000,"cc",28315.154,6.00,6,0.100,43293.000,0.200,3677.000,0.300,1426.000,0.500,1501.000,1.000,510.000,5.000,0
"03/05/08","09:03:36",50350.000,"cc",28298.609,6.00,6,0.100,42859.000,0.200,3801.000,0.300,1493.000,0.500,1662.000,1.000,535.000,5.000,0
"03/05/08","09:03:42",50641.000,"cc",28327.465,6.00,6,0.100,43163.000,0.200,3688.000,0.300,1537.000,0.500,1694.000,1.000,559.000,5.000,0
"03/05/08","09:03:48",51406.000,"cc",28291.000,6.00,6,0.100,43780.000,0.200,3863.000,0.300,1519.000,0.500,1676.000,1.000,568.000,5.000,0
"03/05/08","09:03:54",52120.000,"cc",28399.012,6.00,6,0.100,44095.000,0.200,4037.000,0.300,1658.000,0.500,1760.000,1.000,570.000,5.000,0
"03/05/08","09:04:00",50156.000,"cc",28249.824,6.00,6,0.100,42699.000,0.200,3789.000,0.300,1511.000,0.500,1636.000,1.000,521.000,5.000,0
"03/05/08","09:04:06",50034.000,"cc",28334.568,6.00,6,0.100,42698.000,0.200,3723.000,0.300,1503.000,0.500,1600.000,1.000,510.000,5.000,0
"03/05/08","09:04:12",50930.000,"cc",28278.736,6.00,6,0.100,43474.000,0.200,3711.000,0.300,1529.000,0.500,1665.000,1.000,551.000,5.000,0
"03/05/08","09:04:18",50271.000,"cc",28321.777,6.00,6,0.100,42785.000,0.200,3670.000,0.300,1562.000,0.500,1689.000,1.000,565.000,5.000,0
"03/05/08","09:04:24",50092.000,"cc",28340.270,6.00,6,0.100,42772.000,0.200,3617.000,0.300,1553.000,0.500,1594.000,1.000,556.000,5.000,0
"03/05/08","09:04:30",50552.000,"cc",28331.332,6.00,6,0.100,42871.000,0.200,3809.000,0.300,1594.000,0.500,1660.000,1.000,618.000,5.000,0
"03/05/08","09:04:36",50653.000,"cc",28280.975,6.00,6,0.100,43095.000,0.200,3678.000,0.300,1585.000,0.500,1698.000,1.000,597.000,5.000,0
"03/05/08","09:04:42",50619.000,"cc",28323.904,6.00,6,0.100,43040.000,0.200,3791.000,0.300,1560.000,0.500,1655.000,1.000,573.000,5.000,0
"03/05/08","09:04:48",50044.000,"cc",28283.943,6.00,6,0.100,42642.000,0.200,3741.000,0.300,1480.000,0.500,1625.000,1.000,556.000,5.000,0
"03/05/08","09:04:54",50172.000,"cc",28346.387,6.00,6,0.100,42605.000,0.200,3737.000,0.300,1554.000,0.500,1695.000,1.000,581.000,5.000,0
"03/05/08","09:05:00",50228.000,"cc",28374.824,6.00,6,0.100,42869.000,0.200,3676.000,0.300,1456.000,0.500,1634.000,1.000,593.000,5.000,0
"03/05/08","09:05:06",50413.000,"cc",28266.514,6.00,6,0.100,42855.000,0.200,3715.000,0.300,1573.000,0.500,1702.000,1.000,568.000,5.000,0
"03/05/08","09:05:12",50453.000,"cc",28257.203,6.00,6,0.100,43008.000,0.200,3780.000,0.300,1499.000,0.500,1606.000,1.000,560.000,5.000,0
"03/05/08","09:05:18",51064.000,"cc",28338.535,6.00,6,0.100,43674.000,0.200,3737.000,0.300,1442.000,0.500,1613.000,1.000,598.000,5.000,0
"03/05/08","09:05:24",49939.000,"cc",28309.674,6.00,6,0.100,42798.000,0.200,3574.000,0.300,1467.000,0.500,1575.000,1.000,525.000,5.000,0
"03/05/08","09:05:30",51059.000,"cc",28328.504,6.00,6,0.100,43398.000,0.200,3845.000,0.300,1555.000,0.500,1684.000,1.000,577.000,5.000,0
"03/05/08","09:05:36",51186.000,"cc",28357.979,6.00,6,0.100,43767.000,0.200,3735.000,0.300,1478.000,0.500,1639.000,1.000,567.000,5.000,0
"03/05/08","09:05:42",50798.000,"cc",28343.611,6.00,6,0.100,43391.000,0.200,3678.000,0.300,1520.000,0.500,1676.000,1.000,533.000,5.000,0
"03/05/08","09:05:48",51246.000,"cc",28256.990,6.00,6,0.100,44033.000,0.200,3616.000,0.300,1431.000,0.500,1613.000,1.000,553.000,5.000,0
"03/05/08","09:05:54",51086.000,"cc",28354.389,6.00,6,0.100,43828.000,0.200,3741.000,0.300,1380.000,0.500,1609.000,1.000,528.000,5.000,0
"03/05/08","09:06:00",51578.000,"cc",28287.859,6.00,6,0.100,44074.000,0.200,3824.000,0.300,1539.000,0.500,1582.000,1.000,559.000,5.000,0
"03/05/08","09:06:06",51204.000,"cc",28332.826,6.00,6,0.100,43685.000,0.200,3794.000,0.300,1500.000,0.500,1644.000,1.000,581.000,5.000,0
"03/05/08","09:06:12",50373.000,"cc",28281.961,6.00,6,0.100,43198.000,0.200,3724.000,0.300,1460.000,0.500,1480.000,1.000,511.000,5.000,0
"03/05/08","09:06:18",50569.000,"cc",28308.229,6.00,6,0.100,43600.000,0.200,3551.000,0.300,1359.000,0.500,1541.000,1.000,518.000,5.000,0
"03/05/08","09:06:24",50624.000,"cc",28355.654,6.00,6,0.100,43547.000,0.200,3615.000,0.300,1461.000,0.500,1527.000,1.000,474.000,5.000,0
"03/05/08","09:06:30",50464.000,"cc",28335.772,6.00,6,0.100,43393.000,0.200,3667.000,0.300,1411.000,0.500,1460.000,1.000,533.000,5.000,0
"03/05/08","09:06:36",49952.000,"cc",28336.293,6.00,6,0.100,42922.000,0.200,3702.000,0.300,1335.000,0.500,1493.000,1.000,500.000,5.000,0
"03/05/08","09:06:42",50986.000,"cc",28292.412,6.00,6,0.100,43667.000,0.200,3730.000,0.300,1476.000,0.500,1553.000,1.000,560.000,5.000,0
"03/05/08","09:06:48",50821.000,"cc",28322.211,6.00,6,0.100,43469.000,0.200,3679.000,0.300,1504.000,0.500,1571.000,1.000,598.000,5.000,0
"03/05/08","09:06:54",51112.000,"cc",28318.805,6.00,6,0.100,43649.000,0.200,3778.000,0.300,1472.000,0.500,1672.000,1.000,541.000,5.000,0
"03/05/08","09:07:00",50689.000,"cc",28275.150,6.00,6,0.100,43232.000,0.200,3736.000,0.300,1497.000,0.500,1657.000,1.000,567.000,5.000,0
"03/05/08","09:07:06",50636.000,"cc",28323.268,6.00,6,0.100,43308.000,0.200,3682.000,0.300,1430.000,0.500,1651.000,1.000,565.000,5.000,0
"03/05/08","09:07:12",50899.000,"cc",28346.375,6.00,6,0.100,43606.000,0.200,3667.000,0.300,1422.000,0.500,1685.000,1.000,519.000,5.000,0
"03/05/08","09:07:18",50828.000,"cc",28388.250,6.00,6,0.100,43438.000,0.200,3738.000,0.300,1486.000,0.500,1635.000,1.000,531.000,5.000,0
"03/05/08","09:07:24",50825.000,"cc",28264.705,6.00,6,0.100,43517.000,0.200,3754.000,0.300,1420.000,0.500,1576.000,1.000,558.000,5.000,0
"03/05/08","09:07:30",50998.000,"cc",28309.293,6.00,6,0.100,43817.000,0.200,3718.000,0.300,1362.000,0.500,1594.000,1.000,507.000,5.000,0
"03/05/08","09:07:36",51852.000,"cc",28329.625,6.00,6,0.100,44127.000,0.200,4002.000,0.300,1506.000,0.500,1631.000,1.000,586.000,5.000,0
"03/05/08","09:07:42",50854.000,"cc",28317.106,6.00,6,0.100,43738.000,0.200,3647.000,0.300,1386.000,0.500,1549.000,1.000,534.000,5.000,0
"03/05/08","09:07:48",50603.000,"cc",28284.879,6.00,6,0.100,43271.000,0.200,3753.000,0.300,1456.000,0.500,1564.000,1.000,559.000,5.000,0
"03/05/08","09:07:54",50900.000,"cc",28295.848,6.00,6,0.100,43445.000,0.200,3706.000,0.300,1476.000,0.500,1636.000,1.000,637.000,5.000,0
"03/05/08","09:08:00",50817.000,"cc",28345.147,6.00,6,0.100,43407.000,0.200,3715.000,0.300,1491.000,0.500,1655.000,1.000,549.000,5.000,0
"03/05/08","09:08:06",51058.000,"cc",28335.836,6.00,6,0.100,43823.000,0.200,3646.000,0.300,1414.000,0.500,1608.000,1.000,567.000,5.000,0
"03/05/08","09:08:12",50986.000,"cc",28295.731,6.00,6,0.100,43667.000,0.200,3700.000,0.300,1457.000,0.500,1594.000,1.000,568.000,5.000,0
"03/05/08","09:08:18",50549.000,"cc",28291.070,6.00,6,0.100,43239.000,0.200,3801.000,0.300,1406.000,0.500,1588.000,1.000,515.000,5.000,0
"03/05/08","09:08:24",50575.000,"cc",28304.736,6.00,6,0.100,43396.000,0.200,3674.000,0.300,1401.000,0.500,1591.000,1.000,513.000,5.000,0
"03/05/08","09:08:30",50757.000,"cc",28346.479,6.00,6,0.100,43347.000,0.200,3672.000,0.300,1484.000,0.500,1680.000,1.000,574.000,5.000,0
"03/05/08","09:08:36",49864.000,"cc",28328.229,6.00,6,0.100,42755.000,0.200,3551.000,0.300,1432.000,0.500,1598.000,1.000,528.000,5.000,0
"03/05/08","09:08:42",50489.000,"cc",28331.316,6.00,6,0.100,43273.000,0.200,3682.000,0.300,1414.000,0.500,1582.000,1.000,538.000,5.000,0
"03/05/08","09:08:48",50159.000,"cc",28311.133,6.00,6,0.100,43060.000,0.200,3666.000,0.300,1338.000,0.500,1550.000,1.000,545.000,5.000,0
"03/05/08","09:08:54",50414.000,"cc",28330.016,6.00,6,0.100,43253.000,0.200,3660.000,0.300,1388.000,0.500,1600.000,1.000,513.000,5.000,0
"03/05/08","09:09:00",50967.000,"cc",28274.529,6.00,6,0.100,43768.000,0.200,3680.000,0.300,1410.000,0.500,1597.000,1.000,512.000,5.000,0
"03/05/08","09:09:06",50401.000,"cc",28309.150,6.00,6,0.100,43186.000,0.200,3758.000,0.300,1376.000,0.500,1574.000,1.000,507.000,5.000,0
"03/05/08","09:09:12",50187.000,"cc",28363.033,6.00,6,0.100,43125.000,0.200,3691.000,0.300,1307.000,0.500,1535.000,1.000,529.000,5.000,0
"03/05/08","09:09:18",50418.000,"cc",28311.207,6.00,6,0.100,43269.000,0.200,3737.000,0.300,1379.000,0.500,1548.000,1.000,485.000,5.000,0
"03/05/08","09:09:24",50646.000,"cc",28300.938,6.00,6,0.100,43272.000,0.200,3703.000,0.300,1515.000,0.500,1582.000,1.000,574.000,5.000,0
"03/05/08","09:09:30",50556.000,"cc",28250.303,6.00,6,0.100,43186.000,0.200,3648.000,0.300,1465.000,0.500,1697.000,1.000,560.000,5.000,0
"03/05/08","09:09:36",50638.000,"cc",28262.967,6.00,6,0.100,43441.000,0.200,3538.000,0.300,1468.000,0.500,1652.000,1.000,539.000,5.000,0
"03/05/08","09:09:42",50527.000,"cc",28357.938,6.00,6,0.100,43260.000,0.200,3678.000,0.300,1425.000,0.500,1647.000,1.000,517.000,5.000,0
"03/05/08","09:09:48",50047.000,"cc",28373.457,6.00,6,0.100,42979.000,0.200,3564.000,0.300,1384.000,0.500,1564.000,1.000,556.000,5.000,0
"03/05/08","09:09:54",50717.000,"cc",28255.025,6.00,6,0.100,43335.000,0.200,3724.000,0.300,1491.000,0.500,1638.000,1.000,529.000,5.000,0
"03/05/08","09:10:00",50948.000,"cc",28333.266,6.00,6,0.100,43584.000,0.200,3729.000,0.300,1491.000,0.500,1596.000,1.000,548.000,5.000,0
"03/05/08","09:10:06",50412.000,"cc",28343.092,6.00,6,0.100,43030.000,0.200,3598.000,0.300,1482.000,0.500,1741.000,1.000,561.000,5.000,0
"03/05/08","09:10:12",50608.000,"cc",28325.147,6.00,6,0.100,43327.000,0.200,3671.000,0.300,1494.000,0.500,1569.000,1.000,547.000,5.000,0
"03/05/08","09:10:18",50721.000,"cc",28326.697,6.00,6,0.100,42900.000,0.200,3817.000,0.300,1611.000,0.500,1751.000,1.000,642.000,5.000,0
"03/05/08","09:10:24",50764.000,"cc",28374.750,6.00,6,0.100,43032.000,0.200,3832.000,0.300,1577.000,0.500,1739.000,1.000,584.000,5.000,0
"03/05/08","09:10:30",49874.000,"cc",28299.559,6.00,6,0.100,42471.000,0.200,3687.000,0.300,1460.000,0.500,1691.000,1.000,565.000,5.000,0
"03/05/08","09:10:36",50012.000,"cc",28280.994,6.00,6,0.100,42807.000,0.200,3692.000,0.300,1378.000,0.500,1617.000,1.000,518.000,5.000,0
"03/05/08","09:10:42",51189.000,"cc",28286.650,6.00,6,0.100,43429.000,0.200,3909.000,0.300,1625.000,0.500,1661.000,1.000,565.000,5.000,0
"03/05/08","09:10:48",51593.000,"cc",28339.691,6.00,6,0.100,43801.000,0.200,3967.000,0.300,1628.000,0.500,1655.000,1.000,542.000,5.000,0
"03/05/08","09:10:54",49628.000,"cc",28285.492,6.00,6,0.100,42629.000,0.200,3619.000,0.300,1420.000,0.500,1444.000,1.000,516.000,5.000,0
"03/05/08","09:11:00",49968.000,"cc",28304.750,6.00,6,0.100,42850.000,0.200,3687.000,0.300,1327.000,0.500,1562.000,1.000,542.000,5.000,0
"03/05/08","09:11:06",50362.000,"cc",28292.158,6.00,6,0.100,42964.000,0.200,3762.000,0.300,1452.000,0.500,1636.000,1.000,548.000,5.000,0
"03/05/08","09:11:12",50391.000,"cc",28276.697,6.00,6,0.100,43185.000,0.200,3627.000,0.300,1400.000,0.500,1644.000,1.000,535.000,5.000,0
"03/05/08","09:11:18",50385.000,"cc",28335.684,6.00,6,0.100,43159.000,0.200,3671.000,0.300,1425.000,0.500,1582.000,1.000,548.000,5.000,0
"03/05/08","09:11:24",49754.000,"cc",28384.371,6.00,6,0.100,42536.000,0.200,3711.000,0.300,1434.000,0.500,1542.000,1.000,531.000,5.000,0
"03/05/08","09:11:30",49702.000,"cc",28392.377,6.00,6,0.100,42524.000,0.200,3652.000,0.300,1423.000,0.500,1551.000,1.000,552.000,5.000,0
"03/05/08","09:11:36",49770.000,"cc",28317.383,6.00,6,0.100,42585.000,0.200,3692.000,0.300,1427.000,0.500,1510.000,1.000,556.000,5.000,0
"03/05/08","09:11:42",50046.000,"cc",28287.266,6.00,6,0.100,42639.000,0.200,3735.000,0.300,1505.000,0.500,1611.000,1.000,556.000,5.000,0
"03/05/08","09:11:48",49418.000,"cc",28321.859,6.00,6,0.100,42422.000,0.200,3623.000,0.300,1412.000,0.500,1452.000,1.000,509.000,5.000,0
"03/05/08","09:11:54",49400.000,"cc",28295.934,6.00,6,0.100,42549.000,0.200,3643.000,0.300,1306.000,0.500,1411.000,1.000,491.000,5.000,0
"03/05/08","09:12:00",49595.000,"cc",28333.287,6.00,6,0.100,42592.000,0.200,3755.000,0.300,1300.000,0.500,1493.000,1.000,455.000,5.000,0
"03/05/08","09:12:06",49970.000,"cc",28239.443,6.00,6,0.100,42665.000,0.200,3880.000,0.300,1352.000,0.500,1557.000,1.000,516.000,5.000,0
"03/05/08","09:12:12",49823.000,"cc",28297.000,6.00,6,0.100,42713.000,0.200,3700.000,0.300,1312.000,0.500,1571.000,1.000,527.000,5.000,0
"03/05/08","09:12:18",49941.000,"cc",28387.586,6.00,6,0.100,42906.000,0.200,3706.000,0.300,1296.000,0.500,1519.000,1.000,514.000,5.000,0
"03/05/08","09:12:24",49924.000,"cc",28301.332,6.00,6,0.100,42707.000,0.200,3761.000,0.300,1347.000,0.500,1552.000,1.000,557.000,5.000,0
"03/05/08","09:12:30",49961.000,"cc",28279.043,6.00,6,0.100,42620.000,0.200,3942.000,0.300,1364.000,0.500,1530.000,1.000,505.000,5.000,0
"03/05/08","09:12:36",49634.000,"cc",28290.096,6.00,6,0.100,42481.000,0.200,3589.000,0.300,1372.000,0.500,1647.000,1.000,545.000,5.000,0
"03/05/08","09:12:42",49896.000,"cc",28339.111,6.00,6,0.100,42705.000,0.200,3671.000,0.300,1394.000,0.500,1592.000,1.000,534.000,5.000,0
"03/05/08","09:12:48",50126.000,"cc",28343.541,6.00,6,0.100,42808.000,0.200,3758.000,0.300,1444.000,0.500,1599.000,1.000,517.000,5.000,0
"03/05/08","09:12:54",50178.000,"cc",28271.523,6.00,6,0.100,42920.000,0.200,3692.000,0.300,1463.000,0.500,1601.000,1.000,502.000,5.000,0
"03/05/08","09:13:00",50016.000,"cc",28242.357,6.00,6,0.100,42518.000,0.200,3800.000,0.300,1463.000,0.500,1664.000,1.000,571.000,5.000,0
"03/05/08","09:13:06",49665.000,"cc",28327.684,6.00,6,0.100,42501.000,0.200,3671.000,0.300,1355.000,0.500,1601.000,1.000,537.000,5.000,0
"03/05/08","09:13:12",49751.000,"cc",28335.356,6.00,6,0.100,42728.000,0.200,3581.000,0.300,1368.000,0.500,1579.000,1.000,495.000,5.000,0
"03/05/08","09:13:18",49394.000,"cc",28345.492,6.00,6,0.100,42427.000,0.200,3623.000,0.300,1372.000,0.500,1483.000,1.000,489.000,5.000,0
"03/05/08","09:13:24",50419.000,"cc",28331.727,6.00,6,0.100,42907.000,0.200,3834.000,0.300,1483.000,0.500,1654.000,1.000,541.000,5.000,0
"03/05/08","09:13:30",49969.000,"cc",28375.690,6.00,6,0.100,42654.000,0.200,3624.000,0.300,1504.000,0.500,1646.000,1.000,541.000,5.000,0
"03/05/08","09:13:36",50511.000,"cc",28269.920,6.00,6,0.100,43211.000,0.200,3690.000,0.300,1419.000,0.500,1586.000,1.000,605.000,5.000,0
"03/05/08","09:13:42",49867.000,"cc",28276.035,6.00,6,0.100,42546.000,0.200,3677.000,0.300,1408.000,0.500,1665.000,1.000,571.000,5.000,0
"03/05/08","09:13:48",50049.000,"cc",28221.920,6.00,6,0.100,42729.000,0.200,3768.000,0.300,1437.000,0.500,1580.000,1.000,535.000,5.000,0
"03/05/08","09:13:54",50025.000,"cc",28357.065,6.00,6,0.100,42700.000,0.200,3749.000,0.300,1474.000,0.500,1557.000,1.000,545.000,5.000,0
"03/05/08","09:14:00",50615.000,"cc",28314.022,6.00,6,0.100,43180.000,0.200,3815.000,0.300,1451.000,0.500,1606.000,1.000,563.000,5.000,0
"03/05/08","09:14:06",50251.000,"cc",28357.354,6.00,6,0.100,42783.000,0.200,3755.000,0.300,1476.000,0.500,1669.000,1.000,568.000,5.000,0
"03/05/08","09:14:12",50475.000,"cc",28339.834,6.00,6,0.100,43002.000,0.200,3714.000,0.300,1466.000,0.500,1695.000,1.000,598.000,5.000,0
"03/05/08","09:14:18",50405.000,"cc",28281.508,6.00,6,0.100,43014.000,0.200,3739.000,0.300,1425.000,0.500,1630.000,1.000,597.000,5.000,0
"03/05/08","09:14:24",50129.000,"cc",28313.766,6.00,6,0.100,42890.000,0.200,3587.000,0.300,1467.000,0.500,1627.000,1.000,558.000,5.000,0
"03/05/08","09:14:30",50153.000,"cc",28353.670,6.00,6,0.100,42716.000,0.200,3658.000,0.300,1500.000,0.500,1674.000,1.000,605.000,5.000,0
"03/05/08","09:14:36",49583.000,"cc",28327.525,6.00,6,0.100,42259.000,0.200,3674.000,0.300,1452.000,0.500,1676.000,1.000,522.000,5.000,0
"03/05/08","09:14:42",49732.000,"cc",28269.752,6.00,6,0.100,42317.000,0.200,3748.000,0.300,1449.000,0.500,1629.000,1.000,589.000,5.000,0
"03/05/08","09:14:48",49387.000,"cc",28311.684,6.00,6,0.100,42125.000,0.200,3695.000,0.300,1472.000,0.500,1535.000,1.000,560.000,5.000,0
"03/05/08","09:14:54",49902.000,"cc",28315.492,6.00,6,0.100,42644.000,0.200,3676.000,0.300,1450.000,0.500,1589.000,1.000,543.000,5.000,0
"03/05/08","09:15:00",49995.000,"cc",28325.809,6.00,6,0.100,42713.000,0.200,3711.000,0.300,1407.000,0.500,1625.000,1.000,539.000,5.000,0
"03/05/08","09:15:06",49689.000,"cc",28365.356,6.00,6,0.100,42567.000,0.200,3724.000,0.300,1369.000,0.500,1509.000,1.000,520.000,5.000,0
"03/05/08","09:15:12",49626.000,"cc",28309.877,6.00,6,0.100,42387.000,0.200,3700.000,0.300,1415.000,0.500,1593.000,1.000,531.000,5.000,0
"03/05/08","09:15:18",49922.000,"cc",28262.313,6.00,6,0.100,42675.000,0.200,3771.000,0.300,1384.000,0.500,1571.000,1.000,521.000,5.000,0
"03/05/08","09:15:24",49950.000,"cc",28346.563,6.00,6,0.100,42650.000,0.200,3781.000,0.300,1421.000,0.500,1589.000,1.000,509.000,5.000,0
"03/05/08","09:15:30",49738.000,"cc",28333.633,6.00,6,0.100,42592.000,0.200,3690.000,0.300,1417.000,0.500,1526.000,1.000,513.000,5.000,0
"03/05/08","09:15:36",49669.000,"cc",28301.170,6.00,6,0.100,42416.000,0.200,3728.000,0.300,1394.000,0.500,1594.000,1.000,537.000,5.000,0
"03/05/08","09:15:42",49914.000,"cc",28264.336,6.00,6,0.100,42747.000,0.200,3814.000,0.300,1304.000,0.500,1540.000,1.000,509.000,5.000,0
"03/05/08","09:15:48",49599.000,"cc",28318.563,6.00,6,0.100,42405.000,0.200,3823.000,0.300,1342.000,0.500,1510.000,1.000,519.000,5.000,0
"03/05/08","09:15:54",49458.000,"cc",28303.168,6.00,6,0.100,42391.000,0.200,3755.000,0.300,1332.000,0.500,1482.000,1.000,498.000,5.000,0
"03/05/08","09:16:00",49981.000,"cc",28268.424,6.00,6,0.100,42746.000,0.200,3846.000,0.300,1335.000,0.500,1524.000,1.000,530.000,5.000,0
"03/05/08","09:16:06",49762.000,"cc",28342.779,6.00,6,0.100,42385.000,0.200,3818.000,0.300,1434.000,0.500,1576.000,1.000,549.000,5.000,0
"03/05/08","09:16:12",50130.000,"cc",28303.094,6.00,6,0.100,42807.000,0.200,3775.000,0.300,1475.000,0.500,1588.000,1.000,485.000,5.000,0
"03/05/08","09:16:18",49610.000,"cc",28370.746,6.00,6,0.100,42458.000,0.200,3824.000,0.300,1370.000,0.500,1457.000,1.000,501.000,5.000,0